N0XUT Weather Reports


Display with metric or nautical units.
time (UTC)temp
F
wind
direction
speed
MPH
gust
MPH
rain 1hr
in
rain 24hr
in
rain mn
in
humidity
%
barometer
mb
20260506011501 52 339 8.0 14.0 0.00 0.00 0.00 38 1009.7
20260506010001 53 348 9.0 15.0 0.00 0.00 0.00 38 1009.5
20260506004503 53 338 10.0 20.0 0.00 0.00 0.00 37 1009.4
20260506003002 55 338 10.0 20.0 0.00 0.00 0.00 35 1009.1
20260506001502 55 322 7.0 15.0 0.00 0.00 0.00 35 1008.8
20260505234502 56 340 7.0 14.0 0.00 0.00 0.00 34 1008.6
20260505233002 57 329 9.0 16.0 0.00 0.00 0.00 34 1008.4
20260505231502 57 322 6.0 18.0 0.00 0.00 0.00 35 1008.3
20260505224502 57 323 7.0 15.0 0.00 0.00 0.00 32 1008.1
20260505223002 57 327 7.0 16.0 0.00 0.00 0.00 33 1008.0
20260505221502 58 289 6.0 16.0 0.00 0.00 0.00 32 1008.0
20260505220002 58 285 5.0 16.0 0.00 0.00 0.00 32 1008.1
20260505213002 58 290 6.0 20.0 0.00 0.00 0.00 32 1008.2
20260505211502 59 297 10.0 18.0 0.00 0.00 0.00 33 1008.4
20260505210002 59 264 9.0 15.0 0.00 0.00 0.00 31 1008.3
20260505204502 58 295 5.0 16.0 0.00 0.00 0.00 34 1008.4
20260505203002 59 298 10.0 15.0 0.00 0.00 0.00 33 1008.5
20260505200002 58 266 7.0 17.0 0.00 0.00 0.00 34 1008.9
20260505194502 58 266 9.0 15.0 0.00 0.00 0.00 33 1009.0
20260505193002 57 289 6.0 18.0 0.00 0.00 0.00 35 1009.4
20260505184503 56 263 5.0 13.0 0.00 0.00 0.00 35 1009.7
20260505183002 55 302 6.0 20.0 0.00 0.00 0.00 36 1009.8
20260505181502 56 323 7.0 14.0 0.00 0.00 0.00 36 1009.8
20260505180002 55 350 3.0 16.0 0.00 0.00 0.00 33 1009.9
20260505174502 55 315 13.0 24.0 0.00 0.00 0.00 35 1010.1
20260505171502 54 330 6.0 10.0 0.00 0.00 0.00 39 1010.1
20260505164502 53 286 9.0 16.0 0.00 0.00 0.00 36 1010.1
20260505163003 53 293 5.0 20.0 0.00 0.00 0.00 38 1010.2
20260505161502 53 303 7.0 13.0 0.00 0.00 0.00 39 1009.9
20260505153002 52 348 3.0 10.0 0.00 0.00 0.00 41 1009.6
20260505151502 51 324 6.0 10.0 0.00 0.00 0.00 38 1009.5
20260505124502 46 227 1.0 2.0 0.00 0.00 0.00 61 1009.9
20260505120003 43 288 0.0 0.0 0.00 0.00 0.00 61 1009.7
20260505114503 43 288 0.0 0.0 0.00 0.00 0.00 61 1009.4
20260505113003 43 288 0.0 0.0 0.00 0.00 0.00 60 1009.0
20260505111503 43 288 0.0 0.0 0.00 0.00 0.00 59 1008.6
20260505100002 45 345 0.0 0.0 0.00 0.00 0.00 55 1007.1
20260505093003 46 312 0.0 0.0 0.00 0.00 0.00 52 1007.6
20260505091503 47 312 0.0 1.0 0.00 0.00 0.00 50 1007.4
20260505090003 47 315 0.0 2.0 0.00 0.00 0.00 49 1007.0
20260505084503 47 271 0.0 5.0 0.00 0.00 0.00 48 1007.1
20260505083003 48 328 3.0 9.0 0.00 0.00 0.00 47 1006.3
20260505080002 49 337 5.0 13.0 0.00 0.00 0.00 45 1006.3
20260505071503 49 338 12.0 17.0 0.00 0.00 0.00 45 1006.1
20260505061503 51 327 9.0 20.0 0.00 0.00 0.00 45 1005.4
20260505060003 51 333 10.0 20.0 0.00 0.00 0.00 44 1005.6
20260505054502 52 331 8.0 21.0 0.00 0.00 0.00 44 1005.7
20260505053003 52 322 10.0 21.0 0.00 0.00 0.00 43 1005.7
20260505051503 52 324 12.0 25.0 0.00 0.00 0.00 42 1005.0
20260505041503 54 331 10.0 23.0 0.00 0.00 0.00 45 1004.3
20260505040004 54 333 14.0 20.0 0.00 0.00 0.00 44 1004.4
20260505034502 56 344 14.0 26.0 0.00 0.00 0.00 43 1003.6
20260505033002 57 329 15.0 26.0 0.00 0.00 0.00 42 1003.3
20260505030003 58 332 12.0 20.0 0.00 0.00 0.00 38 1003.3
20260505024503 58 302 9.0 16.0 0.00 0.00 0.00 38 1003.1
20260505021503 58 320 7.0 20.0 0.00 0.00 0.00 38 1002.2
20260505020003 59 316 9.0 20.0 0.00 0.00 0.00 37 1002.0
20260505014502 59 328 9.0 16.0 0.00 0.00 0.00 37 1001.5
20260505013002 60 333 9.0 20.0 0.00 0.00 0.00 35 1001.0